Temp
9 9 9 9 9 10 9 10 10 11 12 12 11 11 11 10 10 9 9 13 13 13 14 14 14 14 14 13 14 14 11 11 13 14 14 16 15 17 17 17 17 19 19 17 16
9 9 9 10 9 9 9 9 9 10 11 12 11 10 11 10 10 9 13 12 13 13 13 13 13 13 11 13 13 11 9 11 13 14 13 14 14 14 15 15 16 17 17 19 17
9 9 9 9 9 9 9 9 9 9 10 12 11 10 10 10 9 10 13 12 13 13 14 13 14 13 12 12 13 12 10 12 14 14 14 14 14 15 14 15 15 15 16 16 18
8 9 9 9 9 9 9 9 9 9 9 11 10 10 9 10 12 12 13 13 13 13 13 13 13 12 11 11 12 11 13 13 14 14 13 13 14 14 14 14 15 15 16 16 16
8 8 8 9 9 9 9 9 9 9 9 11 10 9 9 9 10 12 13 13 12 13 13 13 12 12 11 11 12 11 12 12 12 12 12 13 13 12 13 14 14 15 16 15 16
8 8 8 8 8 8 8 9 9 9 9 10 9 9 10 10 12 12 12 12 12 12 13 13 12 12 12 12 11 11 10 11 11 11 12 12 12 12 13 14 14 15 15 15 15
8 8 8 8 8 8 8 8 8 9 9 10 10 9 10 12 12 12 12 12 12 12 12 12 12 12 11 10 10 10 9 10 11 11 11 12 11 11 13 13 13 14 15 15 15
7 8 7 7 8 8 7 10 11 10 10 9 9 10 10 12 12 12 12 12 12 12 12 12 12 11 10 11 10 9 9 7 10 12 11 11 10 12 13 13 13 14 14 15 15
7 7 7 7 7 7 8 10 11 10 9 9 8 10 10 12 12 12 12 12 12 12 12 12 12 10 10 9 5 7 5 7 9 12 11 11 10 11 12 12 12 13 14 13 14
7 7 7 7 7 7 8 8 8 8 8 8 9 10 9 11 12 12 12 12 12 11 11 11 8 8 8 7 4 6 8 7 8 11 11 11 11 12 13 12 12 11 12 12 13
7 7 7 7 7 7 7 5 7 7 7 9 9 10 10 12 12 12 12 12 11 11 8 9 7 8 8 7 8 7 7 7 9 11 10 10 11 11 12 11 11 10 10 11 12
6 7 7 7 7 7 6 5 6 6 7 9 10 11 12 12 11 11 12 10 10 8 9 9 8 9 9 8 8 8 9 9 10 12 11 11 11 11 12 11 12 12 11 12 13
7 7 7 7 7 7 7 6 7 6 8 8 10 12 11 12 11 10 11 10 9 8 8 6 9 10 9 8 8 9 10 10 9 10 11 11 11 11 13 13 12 12 11 12 12
7 7 7 7 7 6 6 6 6 6 8 8 8 10 11 12 11 12 11 11 10 9 9 8 10 10 9 9 10 10 11 11 11 10 11 11 7 10 10 11 10 12 11 11 12
6 7 7 7 7 6 7 6 6 7 9 7 8 11 11 11 10 10 10 10 9 10 9 8 10 9 10 10 11 11 11 11 11 11 10 10 11 11 11 12 10 12 12 12 12
6 7 7 7 7 7 7 6 7 7 8 8 9 10 10 11 11 10 10 10 10 9 9 9 10 10 11 12 11 12 11 11 11 11 11 9 10 10 11 10 11 12 10 10 11
6 7 7 7 6 7 7 6 5 6 7 8 9 9 11 11 9 9 9 9 9 10 9 11 11 11 11 11 12 11 11 12 12 10 12 12 12 10 10 11 11 11 10 9 9
7 7 7 7 7 6 7 5 5 8 8 10 10 10 10 11 10 9 9 8 8 10 10 10 10 11 11 11 11 12 11 12 13 13 11 12 11 11 10 10 10 9 9 9 8
6 7 6 6 7 7 4 5 5 8 11 10 10 10 10 11 10 9 9 11 12 12 11 11 11 11 11 12 12 12 12 12 13 13 11 12 11 9 9 10 9 9 8 8 7
6 6 5 6 7 7 4 7 7 9 11 11 10 11 10 10 10 9 10 12 12 12 11 11 11 12 14 12 13 12 14 12 12 13 14 12 12 11 9 8 8 8 8 7 7
7 4 6 6 7 6 6 7 8 10 12 11 12 11 11 10 11 11 10 12 12 12 10 11 12 13 14 13 14 13 13 13 14 13 13 13 11 11 9 8 7 8 8 7 7
6 5 6 7 5 6 7 7 8 10 11 10 12 13 11 10 10 11 11 10 12 12 11 11 11 10 14 14 14 13 13 13 12 13 10 10 11 11 10 9 8 8 8 8 7
5 5 7 7 5 5 8 9 9 12 12 13 14 14 13 12 12 12 12 14 13 13 13 13 11 10 12 12 13 13 13 12 12 10 10 10 11 10 10 9 9 9 9 9 9
5 4 4 5 6 7 8 11 11 12 13 14 14 14 14 13 13 13 13 14 14 14 13 12 10 10 9 12 12 12 11 12 11 8 10 9 9 9 9 8 8 9 8 8 8
4 4 6 5 7 6 7 11 11 11 12 11 12 12 14 13 13 13 13 14 14 14 13 12 11 9 12 14 13 12 11 11 10 12 12 10 10 9 8 8 7 7 7 7 8
6 6 5 6 7 9 9 10 11 11 11 11 11 10 10 10 10 11 11 12 13 12 13 10 10 10 10 13 12 12 11 11 11 11 11 11 12 11 9 8 8 7 7 8 8
7 7 6 8 8 9 9 11 11 12 11 10 11 11 11 10 10 9 9 11 12 13 12 11 8 6 9 10 11 11 11 11 12 11 12 12 13 10 10 10 9 7 8 8 7
Height
801 799 797 796 794 792 791 790 788 787 788 786 788 791 791 792 794 795 793 791 791 793 794 796 795 795 797 799 800 803 816 816 806 802 797 790 793 784 785 786 786 780 778 775 766
797 796 793 793 791 790 787 787 786 784 783 784 785 789 789 791 794 794 789 790 791 793 794 797 796 797 801 801 803 808 820 810 800 796 799 795 795 791 788 786 782 782 778 776 775
794 791 789 788 787 785 785 784 783 781 780 780 783 787 788 791 793 786 785 789 792 793 795 795 796 797 804 804 803 804 810 801 797 796 794 793 792 790 789 783 784 782 780 776 773
791 788 786 784 782 781 780 779 779 778 776 778 781 784 787 790 790 783 784 789 792 793 795 795 796 800 806 807 804 807 800 798 796 795 795 794 790 788 786 782 778 777 777 776 772
788 785 783 782 779 776 774 774 774 774 773 772 777 780 785 791 787 784 786 790 792 793 794 795 798 801 807 807 806 805 802 799 798 798 796 791 788 789 781 778 776 773 770 772 770
784 780 779 778 776 772 769 767 767 768 769 771 774 778 782 788 781 784 787 790 792 793 794 797 800 801 803 805 808 806 805 802 799 797 793 791 782 785 775 775 770 768 768 765 767
782 778 775 774 772 768 764 760 757 758 762 766 771 776 779 781 781 784 789 790 793 794 796 799 801 802 806 808 806 805 807 802 796 791 790 785 778 779 773 773 768 763 763 761 760
779 775 772 771 769 764 757 746 743 748 754 762 770 776 778 778 782 786 790 792 795 796 798 800 802 805 806 807 808 809 810 813 793 786 785 788 779 772 769 768 764 760 757 757 753
775 772 770 769 767 762 753 744 740 748 755 763 773 773 782 780 783 786 789 792 796 797 798 801 802 806 807 812 829 817 833 813 799 782 783 785 779 767 765 764 760 756 754 753 750
770 768 768 766 764 762 755 747 747 754 761 769 771 774 781 779 781 785 789 793 798 798 799 803 809 812 813 817 842 827 810 811 804 785 781 782 771 759 759 760 755 754 752 748 747
767 765 764 764 764 763 758 755 758 766 768 766 769 771 775 777 782 786 790 793 797 800 806 807 816 810 807 809 808 812 815 807 791 785 783 774 769 758 755 755 752 751 748 743 741
764 763 763 764 763 764 762 766 764 768 769 768 769 770 774 777 784 788 791 797 799 806 803 808 808 800 800 804 805 807 800 791 778 770 772 766 761 757 750 748 745 744 744 741 738
760 761 762 763 763 764 763 763 765 766 765 777 772 774 778 779 783 789 791 794 799 804 807 815 800 791 796 799 801 796 791 781 785 776 769 768 758 753 744 742 744 741 741 739 737
758 760 761 761 765 766 765 765 768 766 768 781 783 781 779 778 784 786 790 794 795 800 800 805 792 791 792 793 791 784 774 776 773 774 769 766 793 759 754 749 751 744 743 743 741
756 759 760 761 763 766 771 769 769 768 767 789 786 781 779 782 786 790 792 794 798 793 800 803 789 790 787 784 781 775 773 771 767 769 772 767 765 756 755 750 755 750 749 750 746
756 760 760 762 763 765 767 768 767 773 776 781 784 781 783 781 785 791 794 795 795 798 795 791 787 788 779 772 772 767 768 766 768 767 766 773 767 765 761 760 756 754 757 755 750
759 761 762 763 766 767 767 768 783 789 790 789 783 783 781 783 790 793 796 797 797 793 792 781 778 776 773 774 766 768 770 763 759 773 755 753 757 765 766 762 761 758 761 760 758
762 766 765 765 766 769 770 778 797 780 781 776 778 780 785 782 787 792 793 800 796 790 787 782 782 773 770 770 766 763 769 758 747 750 764 754 759 762 768 765 764 764 765 763 762
769 770 769 771 771 771 776 788 795 785 772 776 784 786 785 780 786 790 792 782 778 779 784 779 777 769 767 764 765 760 759 759 751 749 762 758 764 772 772 766 766 767 768 768 771
776 776 777 776 776 775 784 783 784 776 771 774 776 777 784 784 786 794 787 778 777 777 778 777 777 766 758 761 755 758 753 758 756 750 747 755 753 758 770 773 773 771 774 776 775
780 783 781 778 775 774 785 787 785 775 769 773 769 776 778 783 783 780 784 777 775 776 780 780 774 766 758 759 752 755 753 749 746 749 750 756 766 766 773 777 779 778 777 778 779
783 787 783 779 783 788 787 789 784 778 773 774 769 768 777 783 783 778 776 781 772 772 775 774 775 784 757 749 748 750 751 749 753 750 771 772 774 767 770 773 775 777 777 778 779
792 792 786 784 798 798 787 783 779 770 769 766 766 765 767 772 776 774 773 767 769 769 770 770 777 785 766 760 754 755 750 748 746 760 770 777 774 774 774 775 775 776 778 780 779
791 800 794 790 794 795 790 777 775 770 767 765 766 764 764 769 769 771 770 766 765 766 766 769 779 783 798 775 770 765 759 751 751 777 768 776 780 780 779 780 780 779 779 780 781
795 806 800 803 793 796 795 779 780 781 773 773 771 773 765 772 771 774 770 767 765 765 766 769 779 786 769 764 765 769 769 762 763 756 760 771 772 774 777 780 782 781 782 783 783
797 799 800 797 793 788 788 786 784 782 781 779 782 782 780 786 789 782 778 773 772 769 768 775 787 782 786 767 769 768 772 765 764 763 768 765 761 764 771 778 782 783 783 783 783
794 795 797 795 794 791 791 785 784 779 784 786 784 782 784 785 784 782 781 777 773 771 773 775 790 805 795 779 772 779 770 768 765 765 762 764 760 766 770 772 775 779 779 780 782
Wind_Speed
17 16 16 17 15 14 16 16 16 15 16 19 14 12 7 5 5 5 5 5 6 7 5 4 3 2 3 3 3 2 1 3 4 3 4 6 7 1 3 5 5 4 5 10 4
19 18 12 14 15 16 16 18 18 18 13 17 17 13 7 6 5 8 5 4 11 9 9 3 1 2 2 1 1 3 3 7 5 2 4 8 8 10 7 11 6 2 8 17 6
20 19 15 14 14 13 16 16 19 18 17 18 19 15 10 7 1 5 9 12 10 8 7 2 3 5 1 1 2 3 4 4 4 8 8 7 13 6 7 13 4 12 11 8 18
21 18 16 15 14 15 16 17 19 17 18 21 21 14 12 8 3 3 9 15 11 9 5 2 3 4 2 3 2 4 6 4 3 6 7 9 8 11 11 10 9 9 9 5 11
20 18 16 15 13 16 17 17 18 17 18 14 22 18 12 2 5 10 14 14 13 8 4 2 3 4 3 2 4 4 4 5 6 7 7 11 13 9 15 11 9 11 14 7 8
19 15 12 16 16 17 21 21 22 22 19 18 22 19 7 4 4 18 17 15 12 7 4 3 2 2 1 2 2 4 4 6 4 10 9 11 16 4 6 14 18 15 15 9 7
17 16 12 14 17 20 23 27 28 22 25 27 23 17 3 4 18 18 16 13 10 7 3 7 5 4 2 3 4 5 7 8 11 8 6 7 15 12 14 12 19 21 15 11 8
16 15 14 15 16 21 27 28 17 16 23 31 22 8 3 7 15 18 13 9 7 4 4 6 6 4 3 2 6 4 4 4 5 1 6 7 14 11 13 13 17 18 13 11 14
16 14 13 12 13 18 25 4 17 28 28 26 13 7 1 13 17 17 15 8 7 5 3 1 2 2 1 1 4 3 4 5 6 6 5 6 10 6 9 14 16 15 14 9 11
17 12 11 10 11 14 15 19 24 26 23 15 7 6 1 6 11 14 12 8 3 4 2 3 3 1 1 3 4 6 6 6 7 5 10 13 20 20 15 10 15 9 11 11 8
14 11 9 6 8 8 4 9 4 6 2 3 8 3 4 13 16 8 12 7 4 2 3 3 2 9 12 9 5 3 4 13 17 13 14 16 15 18 14 10 9 9 9 7 9
11 8 5 4 5 4 5 2 4 2 3 8 7 10 17 12 7 4 12 4 3 4 2 2 9 11 7 7 8 8 14 19 17 13 5 10 17 20 14 7 5 5 7 8 5
8 5 3 2 3 6 5 7 5 2 4 5 4 7 4 6 5 8 8 2 3 3 6 6 5 3 7 6 8 11 13 16 13 13 11 12 11 6 3 2 7 6 5 4 6
3 2 3 1 3 7 2 6 7 2 3 4 5 3 3 1 5 8 7 2 2 6 4 7 6 5 7 8 10 12 4 12 8 7 3 4 4 4 5 4 6 9 10 10 5
6 6 5 4 6 3 5 10 9 1 4 1 3 6 3 2 9 2 2 3 3 3 3 6 0 4 5 5 6 7 8 9 5 4 3 4 4 4 5 3 6 9 10 6 7
14 12 6 5 3 3 4 9 4 4 5 4 2 3 4 2 2 3 2 2 1 3 4 8 3 4 4 3 10 10 9 3 4 2 3 4 4 2 4 5 5 7 8 9 7
18 12 9 4 1 4 5 0 4 5 1 4 5 5 3 3 3 3 3 2 4 2 3 3 4 3 3 5 1 5 1 2 2 1 2 2 4 0 7 7 5 2 6 8 10
19 16 12 11 8 6 3 4 8 2 2 2 5 7 3 6 2 4 2 3 6 2 3 2 4 3 4 4 2 4 3 2 3 1 1 2 1 1 7 4 4 6 6 8 11
23 18 14 8 5 6 4 5 3 2 2 6 6 3 2 2 3 3 3 2 4 4 1 2 3 4 7 5 2 1 3 3 2 1 3 1 1 2 4 5 7 8 10 11 8
11 7 7 8 5 5 3 5 3 4 2 5 3 4 4 4 2 1 4 2 2 3 2 2 3 5 3 3 9 6 2 2 2 1 2 3 2 4 2 3 7 8 8 7 8
4 3 7 12 8 3 4 4 2 5 1 3 2 4 3 4 4 4 3 2 3 3 4 2 1 5 1 4 4 1 4 4 1 3 1 2 3 3 1 3 5 4 5 6 5
4 3 10 18 4 2 2 2 4 5 4 4 2 4 5 7 4 3 2 3 6 3 3 5 1 3 5 4 3 3 5 3 3 1 2 3 2 3 4 7 7 5 5 6 4
2 0 5 8 4 3 3 3 4 3 2 0 2 1 4 5 4 2 3 4 6 4 2 2 2 4 8 5 5 4 6 4 2 3 1 4 3 3 5 4 4 4 4 4 4
2 3 4 3 1 2 4 4 5 6 3 3 2 1 2 3 1 3 1 1 2 1 4 2 2 3 4 4 3 6 9 10 3 4 1 2 4 3 4 5 5 4 4 5 4
3 1 2 3 4 2 2 3 5 7 6 9 7 6 1 3 3 3 2 2 1 3 1 2 1 3 3 3 2 3 5 10 8 0 3 5 6 8 9 8 7 5 4 4 3
3 3 2 2 3 2 6 6 6 4 6 5 5 7 9 5 3 4 5 3 1 4 3 3 1 2 3 2 4 3 8 8 6 7 6 3 2 3 3 5 6 7 7 6 5
2 2 3 4 3 3 3 2 5 2 4 4 2 2 6 3 4 5 4 3 1 1 2 2 3 3 4 5 5 4 3 2 1 3 1 2 4 4 3 6 7 7 7 6 6
Wind_Direction
310 310 316 312 320 312 308 316 300 304 284 222 221 228 236 261 251 257 248 193 197 176 167 141 111 69 65 42 23 61 64 232 228 188 255 329 347 16 296 262 327 291 324 342 165
306 300 304 303 308 315 317 306 302 300 280 235 208 210 201 193 229 245 234 211 166 164 154 122 54 75 41 40 331 131 183 215 220 293 300 311 303 313 335 326 298 328 345 348 328
307 301 289 295 299 304 304 298 302 295 311 213 201 194 175 171 109 242 198 194 177 176 169 155 185 133 108 51 237 204 219 233 280 302 290 291 297 285 293 290 292 303 311 327 297
315 301 297 299 299 302 302 293 301 282 286 206 190 175 162 158 207 183 148 170 183 174 147 171 105 101 134 213 266 275 250 252 282 280 297 296 299 286 271 267 269 280 287 285 304
315 307 303 304 300 300 299 293 290 279 277 235 176 161 147 161 248 156 154 154 159 151 131 74 115 138 176 247 337 226 282 316 315 301 275 277 268 267 277 288 285 294 293 278 270
317 310 306 306 305 304 301 293 280 282 251 205 168 164 139 195 178 155 156 157 151 142 100 102 126 133 168 221 173 325 305 288 290 279 268 271 274 267 275 302 286 281 277 281 234
317 317 313 307 308 311 307 295 279 260 227 184 166 168 137 134 144 158 160 160 147 146 107 70 56 84 50 320 344 315 310 311 279 252 252 261 276 262 272 272 276 281 276 278 265
307 312 314 313 315 318 321 303 262 203 221 157 160 145 174 164 170 159 164 158 177 146 129 94 76 103 107 319 350 311 324 323 289 178 252 156 276 267 261 265 267 267 273 264 273
308 304 306 312 326 333 344 82 140 136 132 136 153 120 155 137 156 163 172 157 153 143 139 109 101 143 64 21 356 317 262 258 297 248 236 178 281 241 280 290 264 261 274 270 268
305 307 307 319 339 346 340 103 93 114 107 99 95 123 270 169 150 157 170 174 141 146 155 74 50 64 83 130 223 221 259 258 254 287 314 291 275 288 293 268 257 260 266 253 254
306 300 299 318 343 354 297 3 66 63 352 164 157 126 141 126 134 128 139 103 94 132 153 171 133 221 216 206 206 207 259 280 276 269 284 275 279 286 295 280 243 256 282 262 268
301 296 303 308 330 330 115 323 41 120 96 53 164 93 124 123 114 110 136 117 165 189 213 172 244 238 230 225 236 249 265 275 284 274 260 287 291 295 282 251 239 264 279 260 227
295 291 259 286 1 90 125 120 81 38 71 44 29 105 142 147 129 162 144 164 166 197 201 189 237 164 188 233 230 252 260 274 270 295 263 274 287 303 340 17 8 353 329 316 173
264 159 156 125 101 124 76 164 152 327 87 80 136 299 95 138 88 135 162 169 198 222 216 232 244 223 223 239 225 273 237 266 283 294 300 181 278 2 340 16 19 8 22 4 35
164 136 134 121 118 110 125 158 162 292 94 102 122 205 113 50 138 122 101 72 226 240 145 254 163 256 244 223 195 259 295 288 314 254 328 203 283 289 351 342 9 10 7 359 10
136 121 131 108 96 109 118 128 96 39 72 111 131 131 115 141 108 99 86 57 354 263 220 251 255 249 236 249 232 268 285 263 253 166 240 243 158 346 4 340 332 9 8 6 36
116 113 102 96 53 121 139 39 60 71 258 124 136 133 136 143 103 124 159 196 209 236 317 293 227 238 236 288 311 215 306 273 183 211 281 108 158 98 336 314 316 23 25 23 36
119 110 72 83 96 111 55 50 67 341 62 153 116 114 171 168 120 165 104 265 215 209 244 337 341 212 167 239 278 259 223 276 313 169 254 25 307 7 356 1 52 56 53 49 40
111 80 53 57 55 353 56 45 133 228 96 115 130 127 150 200 122 109 229 250 165 197 210 302 290 299 208 227 220 345 270 251 276 50 85 291 211 202 2 55 64 62 60 52 27
67 65 19 17 328 318 87 101 26 326 305 142 121 160 140 170 116 153 192 212 204 180 171 5 298 195 275 198 232 214 334 317 306 43 69 354 36 354 20 44 35 56 63 62 54
36 60 352 346 330 49 56 61 320 286 160 215 263 114 126 150 204 204 227 243 215 174 174 279 279 293 103 212 283 288 269 222 251 156 154 59 350 40 317 132 98 67 79 78 84
34 39 339 347 51 39 66 159 215 248 269 291 213 101 156 184 170 202 232 246 179 193 230 222 201 285 248 258 243 220 260 265 124 218 58 107 330 102 122 137 139 142 135 138 130
86 324 344 347 67 17 326 272 220 14 143 323 59 209 175 168 105 164 209 224 191 206 231 346 349 334 339 358 6 2 327 299 130 72 76 117 228 123 138 165 169 143 114 127 127
73 39 338 33 87 22 341 13 8 345 354 1 22 91 76 57 35 134 230 284 214 219 175 106 89 164 174 227 266 329 333 353 84 75 183 11 126 183 189 176 196 190 150 138 113
39 238 189 347 349 303 302 4 13 9 4 18 19 16 113 64 30 33 2 356 38 23 53 93 85 23 313 307 48 327 339 353 42 8 119 190 155 203 195 190 191 186 153 137 118
119 125 2 250 297 324 8 358 28 355 23 2 63 7 50 75 23 3 342 38 1 339 52 12 255 59 316 349 36 360 359 4 21 28 61 89 344 180 148 137 159 180 173 181 178
54 86 110 310 6 54 328 348 360 20 37 66 313 60 39 323 248 243 228 295 322 241 355 72 118 67 284 342 333 350 328 10 24 24 149 178 228 139 172 195 182 189 191 182 177